Airfield :
LOGIN :

Register | Disclaimer

   EN    FR    IT 

 










Legend :    VFR   Marginal VFR   IFR   Intensive IFR   Very Intensive IFR
Visi :
Ceiling :
>= 8 km
>= 3000ft
5 to 8 km
1000 to 3000 ft
1500m to 5 km
500 to 1000 ft
800 to 1500m
200 to 500 ft
< 800m
< 200 ft
Symbols :   Thunderstorms  Fog  Heavy snow  Heavy precipitations  Wind > 20 kt
SIGMETs :     Misc.  Thunderstorms  Icing  Turbulence  Mountain Waves  Volcanic Ashes







- Airport Elevation : 288 ft
- IATA code : BZZ


EGVN - RAF Brize Norton

CURRENT METAR :
  • 291250Z 17003KT 6000 -RA OVC008 17/15 Q1012 GRN TEMPO 8000 HZ GRN

EXPIRED METARs :
  • 291150Z 18003KT 8000 HZ OVC008 17/15 Q1012 NOSIG
  • 291050Z 14004KT 8000 HZ OVC008 17/15 Q1012 NOSIG

TAF TAF EGVN
Valid from the 29 at 12:00 until the 30 at 12:00 UTC


291030Z 2912/3012 19005KT 9999 BKN012
TEMPO 2912/2919 7000 SHRA
PROB30
TEMPO 2912/2918 4000 +SHRA BKN010 BKN018CB
BECMG 2918/2921 BKN025
PROB40
TEMPO 2921/3010 SCT014
No reported NOTAMs for that airfield.



MET'MAP, your aeronautical weather chart ! - Copyright ORBIFLY December 2007 - Disclaimer

ORBIFLY MET'MAP TEAM :

Programming & Development : Alexandra Zaïnal
Concept & Development : Baudouin d'Aumeries
Co-Development & Prog : Marc-Olivier Méhu
Technical & hardware support : Manuel Goepfert

Contact : metmap@orbifly.com




SOURCES & CREDITS :

   NOAA